Big Piney, WY

9:19 PM MDT on March 29, 2017 (GMT -0600)
Big Piney-Marbleton

Weather History for KBPI - October, 2011

Change the Weather History Date:

Monday, October 10, 2011

  Actual Average Record
Temperature  
Mean Temperature 40 °F 41 °F  
Max Temperature 54 °F 58 °F 77 °F (1996)
Min Temperature 26 °F 23 °F 11 °F (2009)
Degree Days  
Heating Degree Days 25 24  
Month to date heating degree days 227  
Since 1 July heating degree days 978  
Cooling Degree Days 0 0  
Month to date cooling degree days 0  
Year to date cooling degree days 35  
Moisture  
Dew Point 28 °F    
Average Humidity 69    
Maximum Humidity 93    
Minimum Humidity 35    
Precipitation  
Precipitation 0.00 in 0.02 in 0.12 in (2008)
Month to date precipitation 0.22  
Year to date precipitation 5.66  
Sea Level Pressure  
Sea Level Pressure 29.96 in    
Wind  
Wind Speed 3 mph (West)    
Max Wind Speed 17 mph    
Max Gust Speed 24 mph    
Visibility 10 miles    
Events      
T = Trace of Precipitation, MM = Missing Value Source: NWS Daily Summary

Daily Weather History Graph

Daily Weather History Graph

Search for Another Location

Airport or City:

Trip Planner

Search our weather history database for the weather conditions in past years. The results will help you decide how hot, cold, wet, or windy it might be!

Date:

Astronomy

Oct. 10, 2011 Rise Set
Actual Time 7:27 AM MDT 6:46 PM MDT
Civil Twilight 6:59 AM MDT 7:14 PM MDT
Nautical Twilight 6:26 AM MDT 7:47 PM MDT
Astronomical Twilight 5:53 AM MDT 8:20 PM MDT
Moon 5:51 PM MDT (10/10) 6:11 AM MDT (10/10)
Length of Visible Light 12h 15m
Length of Day
11h 19m
Waxing Gibbous, 98% of the Moon is Illuminated
Oct 10
Waxing Gibbous
Oct 11
Full
Oct 19
Last Quarter
Oct 26
New
Nov 2
First Quarter

Hourly Weather History & Observations

Time (MDT) Temp. Windchill Dew Point Humidity Pressure Visibility Wind Dir Wind Speed Gust Speed Precip Events Conditions
12:53 AM 33.8 °F - 30.2 °F 87% 30.07 in 10.0 mi Calm Calm - N/A   Partly Cloudy
1:53 AM 28.9 °F - 26.1 °F 89% 30.00 in 10.0 mi Calm Calm - N/A   Clear
2:53 AM 27.0 °F 23.0 °F 24.1 °F 89% 30.01 in 10.0 mi SW 3.5 mph - N/A   Clear
3:53 AM 26.1 °F - 23.0 °F 88% 30.00 in 10.0 mi Calm Calm - N/A   Clear
4:53 AM 26.1 °F - 24.1 °F 92% 29.99 in 10.0 mi Calm Calm - N/A   Clear
5:53 AM 27.0 °F - 23.0 °F 85% 30.00 in 10.0 mi Calm Calm - N/A   Clear
6:53 AM 26.6 °F 21.2 °F 24.8 °F 93% 30.06 in 10.0 mi NNW 4.6 mph - N/A   Clear
7:53 AM 28.0 °F 21.7 °F 26.1 °F 92% 30.01 in 10.0 mi ENE 5.8 mph - N/A   Clear
8:53 AM 32.0 °F - 28.4 °F 87% 30.06 in 10.0 mi Calm Calm - N/A   Mostly Cloudy
9:53 AM 37.0 °F - 30.0 °F 76% 29.99 in 10.0 mi Calm Calm - N/A   Scattered Clouds
10:53 AM 42.8 °F 40.1 °F 30.2 °F 61% 30.05 in 10.0 mi SE 4.6 mph - N/A   Clear
11:53 AM 46.4 °F - 30.2 °F 53% 30.04 in 10.0 mi Calm Calm - N/A   Partly Cloudy
12:53 PM 48.0 °F - 30.0 °F 50% 29.93 in 10.0 mi SSE 3.5 mph - N/A   Mostly Cloudy
1:53 PM 51.1 °F - 28.0 °F 41% 29.90 in 10.0 mi WSW 11.5 mph 17.3 mph N/A   Scattered Clouds
2:53 PM 54.0 °F - 27.0 °F 35% 29.88 in 10.0 mi WNW 17.3 mph 24.2 mph N/A   Scattered Clouds
3:53 PM 52.0 °F - 25.0 °F 35% 29.89 in 10.0 mi WNW 10.4 mph 23.0 mph N/A   Clear
4:53 PM 50.0 °F - 27.0 °F 41% 29.88 in 10.0 mi WSW 8.1 mph - N/A   Partly Cloudy
5:53 PM 48.0 °F - 28.0 °F 46% 29.88 in 10.0 mi West 9.2 mph - N/A   Overcast
6:53 PM 45.0 °F 40.6 °F 30.9 °F 58% 29.89 in 10.0 mi West 8.1 mph - N/A   Mostly Cloudy
7:53 PM 42.8 °F 39.3 °F 32.0 °F 66% 29.97 in 10.0 mi West 5.8 mph - N/A   Mostly Cloudy
8:53 PM 43.0 °F 40.3 °F 30.9 °F 62% 29.89 in 10.0 mi NNW 4.6 mph - N/A   Overcast
9:53 PM 42.1 °F 37.1 °F 33.1 °F 70% 29.88 in 10.0 mi West 8.1 mph - N/A   Overcast
10:53 PM 41.0 °F 37.1 °F 33.1 °F 73% 29.85 in 10.0 mi West 5.8 mph - N/A   Overcast
11:53 PM 41.0 °F 37.1 °F 35.1 °F 79% 29.82 in 10.0 mi South 5.8 mph - N/A   Overcast